Voltar ao catálogo

STARLINK-36819

AtivoComunicaçõesSSO
NORAD 67967·PAYLOAD·🇺🇸 United States

Lançado Feb 25, 2026 de Vandenberg Space Force Base

Loading…

Próximas Passagens (próximas 24 horas)

TLE

AtualizadoSource: CelesTrak SupGP

Época: Sep 15, 2026, 03:56 UTC

1 67967C 26038G   26258.16437500 -.00063203  00000+0 -19626-2 0  2582
2 67967  97.2845 266.5496 0001567  89.1899 278.2673 15.33461265    15

Acompanhe STARLINK-36819 em tempo real com AllMySat

Download on the App Store